Wind_Speed
12 12 13 13 13 13 14 16 17 18 19 19 20 21 22 21 20 20 19 18 18 18 17 16 15 15 16 16 16 16 16 17 18 18 18 18 18 19 19 19 19 20 20 20
13 12 12 12 13 12 13 14 16 17 19 19 20 21 21 21 20 20 18 17 16 15 14 14 14 14 15 16 16 16 17 17 17 17 18 19 18 19 19 20 20 20 20 20
12 11 11 12 11 11 12 13 15 17 18 19 20 21 21 20 19 18 17 16 15 13 12 12 12 13 13 14 14 15 15 15 16 17 18 18 18 17 18 19 19 21 21 22
9 9 10 9 11 11 11 13 15 17 19 19 20 20 20 20 19 18 16 14 13 12 12 11 11 11 12 13 13 14 14 15 15 16 16 16 17 17 17 18 19 20 20 20
8 8 9 10 10 11 13 14 16 17 18 19 19 20 19 18 17 16 14 13 12 11 10 10 10 10 11 12 12 12 13 14 15 15 16 16 17 17 17 17 18 19 19 19
7 8 9 9 11 12 13 14 16 17 18 18 18 18 17 16 15 14 12 10 9 9 8 8 9 10 10 10 10 11 11 12 12 13 14 15 15 15 15 16 17 17 16 16
8 8 9 9 10 12 13 15 16 17 17 17 17 16 15 14 13 12 10 8 7 6 6 7 7 8 8 9 10 9 9 10 11 12 12 13 13 14 14 14 13 13 14 14
7 7 7 8 10 12 14 15 16 16 16 16 15 14 13 13 12 10 8 7 6 5 6 6 6 7 8 8 8 9 9 10 11 10 11 11 11 11 12 12 11 12 12 13
4 4 5 8 10 11 13 14 15 16 16 15 14 13 12 12 10 9 6 5 4 4 4 4 4 5 6 7 7 6 7 8 9 9 10 10 10 10 10 10 10 10 11 12
2 3 6 8 10 11 12 14 15 15 15 14 13 12 11 10 8 6 4 3 2 2 3 3 3 5 5 5 6 5 6 6 7 7 7 7 7 8 8 8 8 9 9 10
2 3 6 8 10 11 12 13 14 15 15 15 14 12 11 9 7 5 4 3 2 1 0 1 2 3 4 4 4 4 4 5 5 6 6 6 6 7 6 6 6 7 8 8
1 4 6 8 9 10 12 13 13 14 15 14 13 11 10 9 7 6 5 4 4 3 3 3 3 3 3 2 3 3 3 3 3 3 4 4 4 4 4 4 5 5 6 7
1 3 6 7 8 10 11 12 13 13 14 14 13 12 10 9 8 7 6 5 6 6 5 5 4 3 3 2 2 2 2 2 2 2 2 3 2 3 3 3 4 5 5 5
1 3 4 6 8 10 11 12 12 13 13 13 13 13 12 11 10 8 7 6 6 6 5 5 4 4 3 3 3 2 2 2 2 2 1 1 1 1 1 2 2 2 2 2
1 2 3 6 7 9 10 11 12 13 13 13 13 14 13 13 12 11 9 8 8 7 7 6 5 5 5 5 4 4 4 4 4 3 3 2 2 1 1 1 1 2 2 3
2 0 3 5 7 8 10 11 12 13 13 14 14 14 15 14 13 13 12 10 9 9 8 8 8 7 6 6 6 6 6 6 5 5 4 4 4 4 4 4 4 4 4 4
2 2 3 4 6 8 9 11 12 13 13 14 15 15 16 15 15 14 13 12 11 11 10 10 10 9 9 9 8 8 7 7 7 7 7 6 6 6 6 6 6 6 6 6
4 3 3 4 6 7 9 10 11 13 13 14 15 16 17 17 16 16 15 14 13 12 12 12 11 11 11 11 11 10 10 9 9 8 8 8 8 8 8 8 8 8 8 8
6 4 4 4 6 7 8 9 11 12 14 14 15 16 17 18 18 18 17 16 15 15 14 14 14 14 14 14 14 13 13 12 12 11 11 11 11 11 11 11 10 10 10 10
7 6 5 5 6 7 8 9 11 12 14 15 15 16 17 18 19 19 19 19 18 18 17 17 17 16 16 15 15 15 14 14 14 14 14 14 14 13 13 12 12 11 11 11
8 8 7 6 6 7 8 9 10 11 13 14 15 16 17 18 19 20 21 21 20 20 20 20 19 18 18 17 17 17 16 16 16 16 16 16 15 14 14 13 13 12 11 11
10 9 8 7 7 7 8 9 10 11 12 13 15 16 17 17 18 19 20 21 21 21 21 21 21 20 19 19 19 18 18 18 18 17 17 17 16 15 15 14 14 13 12 12
12 10 9 9 8 8 8 8 9 10 11 13 14 15 16 17 17 18 19 20 20 21 21 21 21 21 20 20 19 18 18 18 18 18 17 17 16 15 15 14 13 13 12 12
14 12 11 10 9 9 9 9 10 10 11 12 13 14 15 16 17 17 18 19 19 20 20 20 20 20 20 19 19 18 18 17 17 17 16 16 15 14 14 13 12 12 11 11
16 14 13 12 11 11 11 10 10 11 11 11 12 13 14 15 16 16 17 17 18 18 19 19 19 19 19 19 18 17 17 17 16 16 15 14 14 13 13 12 12 11 11 11
18 17 15 14 13 12 12 11 11 11 11 12 12 12 13 14 14 15 16 16 16 17 17 18 18 18 18 18 17 17 17 17 16 15 15 14 13 12 12 11 11 11 11 10
20 19 18 16 15 14 13 13 12 12 12 12 12 12 12 13 13 13 14 14 15 15 15 16 16 16 16 16 16 16 15 15 15 15 14 13 13 12 12 11 11 10 10 9
Wind_Direction
274 272 270 272 279 288 291 297 301 303 305 308 309 312 311 310 310 310 306 300 293 284 274 266 261 258 255 254 252 249 248 246 242 239 238 236 236 237 240 243 245 248 250 252
271 267 268 277 283 287 295 300 304 307 306 307 307 310 312 312 311 311 308 301 294 285 272 264 259 254 253 253 248 244 240 239 235 233 234 232 234 238 240 241 245 247 250 253
265 267 277 281 290 295 298 303 306 306 309 310 310 311 312 313 311 309 309 302 298 287 273 264 258 253 249 248 245 241 237 236 234 232 232 232 234 236 239 242 246 248 249 252
264 269 280 287 287 294 302 306 308 308 310 313 313 313 312 311 309 308 307 301 296 286 270 263 258 253 247 244 242 240 238 236 235 234 233 234 234 239 244 245 246 248 247 251
261 273 287 297 303 307 309 310 312 312 313 314 314 312 311 309 306 305 304 297 288 284 274 264 253 246 239 237 236 236 235 235 234 235 236 236 238 240 242 246 246 247 251 255
266 280 293 303 306 310 315 317 318 317 318 318 317 315 312 310 307 306 302 297 288 281 271 254 244 241 237 231 226 226 230 229 230 231 233 232 233 237 241 246 247 248 252 257
267 281 296 309 317 321 324 325 324 323 323 323 321 318 316 313 312 310 306 299 290 277 257 250 250 243 235 226 222 221 226 226 229 230 231 234 238 242 244 246 247 248 254 258
275 284 297 312 323 329 329 329 330 330 330 329 327 324 322 319 316 313 307 298 286 267 249 244 245 240 229 227 223 223 225 225 226 228 232 236 240 243 243 244 248 252 256 260
276 296 301 317 330 335 334 335 337 338 337 337 335 331 329 328 323 319 312 300 280 262 250 242 231 221 215 217 217 221 222 220 220 225 227 230 234 236 237 242 251 254 257 260
271 308 321 331 338 340 341 342 345 347 348 349 348 346 343 340 340 344 342 322 285 261 246 238 225 215 207 210 212 215 218 219 221 218 218 222 227 234 239 245 252 256 261 266
281 319 331 340 346 348 349 351 352 354 357 359 359 360 358 357 3 16 24 25 30 32 32 205 187 186 191 202 206 207 212 215 217 219 226 231 238 242 247 253 261 268 273 276
304 327 341 349 354 357 358 359 359 0 4 7 11 13 12 13 17 26 36 45 53 66 83 105 130 145 167 189 185 183 188 195 202 205 215 228 237 244 254 265 273 280 284 284
317 338 347 354 3 5 5 3 5 8 11 15 19 21 23 28 33 42 50 62 71 74 79 89 98 107 119 140 153 159 169 183 196 204 213 225 234 246 264 276 287 292 292 291
342 350 356 4 11 12 12 14 14 17 19 21 25 31 34 40 45 51 57 67 74 73 74 76 80 85 93 104 111 119 132 144 149 153 155 165 209 263 288 304 316 322 324 326
274 344 12 19 22 22 22 23 24 27 28 30 37 41 43 46 49 52 60 69 72 74 76 78 80 83 88 94 95 100 104 108 112 110 101 95 88 83 82 77 64 64 60 48
208 347 33 34 37 34 30 32 35 38 39 41 45 46 46 49 51 55 62 69 71 72 73 75 76 79 83 86 88 90 93 94 95 94 94 93 91 91 93 94 92 87 76 65
181 112 66 64 55 47 44 42 43 46 46 46 48 48 48 50 53 56 59 64 68 70 73 74 76 80 83 85 84 85 89 92 93 91 92 92 92 93 95 96 93 89 82 77
168 130 100 78 65 61 56 50 48 50 51 52 53 53 53 54 55 57 59 63 68 72 75 77 79 82 83 82 83 86 89 90 90 90 91 92 93 95 96 95 92 89 85 79
162 142 122 100 82 73 66 59 57 58 58 59 59 59 59 59 59 60 63 65 69 73 77 79 82 84 84 84 86 87 87 87 89 91 93 94 95 95 95 93 91 89 85 80
166 154 140 120 102 89 81 74 71 68 67 66 66 65 63 63 63 64 66 69 71 74 77 81 83 85 86 86 86 86 86 86 88 91 93 93 93 93 93 91 89 87 84 81
171 162 152 136 119 105 96 88 81 76 74 72 70 69 67 66 67 67 69 71 73 75 78 81 83 85 85 86 86 86 86 87 88 90 90 90 90 90 90 89 87 85 83 81
172 167 158 146 132 119 109 100 92 86 82 77 73 73 72 71 71 71 71 73 75 78 80 81 83 84 84 86 87 87 87 87 87 88 88 88 89 88 87 86 85 84 81 79
173 171 164 153 142 131 122 114 105 97 91 85 80 78 77 75 75 75 75 75 76 78 80 81 82 83 83 84 85 86 86 86 86 86 86 86 86 86 85 83 82 80 77 74
175 172 166 157 148 138 130 124 115 107 99 92 88 84 81 80 78 78 78 78 78 78 79 80 80 81 82 82 83 84 84 84 84 84 83 83 82 81 80 78 76 74 71 68
176 172 167 160 153 145 137 129 122 115 107 100 95 90 87 84 82 81 80 80 79 79 79 80 80 80 80 80 81 81 82 82 81 80 80 79 78 76 74 72 69 67 65 61
178 174 171 166 159 151 143 135 129 123 115 108 103 98 93 89 86 85 83 82 81 80 79 80 80 79 79 79 79 79 78 77 77 75 74 74 73 71 69 66 64 61 58 55
181 179 175 170 163 156 149 142 135 129 122 115 109 103 98 93 90 88 86 85 83 82 80 79 78 78 77 77 76 76 76 75 73 72 70 68 66 65 63 60 56 52 47 43
Height
5762 5761 5760 5760 5759 5758 5756 5754 5752 5751 5748 5746 5743 5740 5737 5734 5732 5729 5726 5724 5722 5719 5718 5718 5718 5719 5720 5721 5722 5724 5726 5728 5729 5731 5734 5736 5738 5740 5743 5745 5747 5749 5750 5752
5759 5758 5757 5756 5755 5754 5753 5750 5748 5746 5743 5741 5738 5735 5732 5729 5726 5723 5720 5718 5716 5714 5714 5713 5713 5714 5715 5716 5717 5719 5721 5723 5725 5727 5729 5731 5733 5735 5737 5739 5741 5742 5744 5746
5756 5755 5754 5754 5752 5751 5750 5747 5745 5742 5740 5736 5733 5730 5727 5724 5721 5718 5715 5713 5711 5710 5709 5709 5709 5710 5711 5712 5713 5714 5716 5718 5720 5722 5724 5726 5728 5730 5732 5733 5735 5737 5738 5740
5752 5753 5751 5752 5749 5748 5746 5744 5741 5738 5735 5731 5728 5725 5721 5718 5716 5713 5710 5708 5707 5705 5705 5705 5705 5706 5706 5707 5709 5710 5711 5713 5715 5717 5719 5721 5723 5725 5726 5728 5730 5731 5732 5733
5749 5748 5748 5748 5746 5744 5742 5740 5737 5734 5730 5727 5723 5720 5716 5713 5710 5708 5706 5704 5702 5701 5701 5701 5701 5702 5703 5704 5705 5706 5707 5709 5711 5713 5715 5717 5718 5720 5722 5723 5724 5726 5727 5728
5746 5745 5745 5746 5743 5740 5739 5736 5733 5730 5726 5722 5719 5716 5713 5709 5706 5703 5701 5700 5698 5698 5697 5697 5698 5698 5699 5700 5701 5703 5704 5706 5707 5709 5710 5712 5714 5715 5717 5718 5719 5720 5721 5722
5743 5743 5743 5742 5740 5738 5736 5734 5729 5726 5722 5718 5714 5711 5708 5704 5702 5699 5698 5696 5695 5695 5695 5695 5695 5696 5696 5697 5699 5700 5701 5703 5704 5706 5707 5708 5710 5711 5712 5713 5714 5716 5717 5717
5741 5740 5742 5739 5736 5735 5733 5729 5725 5722 5718 5714 5710 5707 5704 5701 5698 5696 5694 5693 5692 5692 5692 5693 5693 5693 5694 5695 5696 5697 5698 5700 5701 5703 5704 5705 5707 5708 5709 5709 5710 5711 5712 5713
5739 5740 5738 5736 5734 5732 5729 5726 5722 5718 5714 5711 5707 5704 5701 5698 5695 5693 5692 5691 5690 5690 5690 5690 5691 5691 5692 5693 5694 5695 5696 5697 5699 5700 5701 5702 5703 5704 5705 5706 5707 5707 5708 5708
5736 5736 5735 5734 5731 5729 5726 5723 5720 5716 5712 5708 5705 5701 5698 5696 5693 5691 5690 5689 5688 5688 5688 5689 5689 5690 5690 5691 5692 5693 5694 5695 5696 5697 5698 5700 5701 5702 5702 5703 5703 5704 5704 5704
5734 5734 5733 5731 5729 5727 5724 5721 5718 5714 5710 5707 5703 5700 5697 5695 5693 5691 5689 5688 5688 5687 5687 5687 5688 5688 5689 5690 5691 5692 5693 5694 5694 5695 5696 5697 5698 5699 5700 5700 5701 5701 5701 5701
5733 5733 5731 5730 5728 5725 5723 5720 5716 5713 5709 5706 5702 5700 5697 5695 5692 5691 5689 5688 5688 5687 5687 5687 5687 5688 5689 5689 5690 5691 5691 5692 5693 5694 5695 5696 5696 5697 5697 5698 5698 5698 5698 5698
5732 5731 5730 5728 5727 5724 5722 5719 5716 5713 5710 5706 5703 5700 5698 5695 5693 5691 5690 5689 5688 5688 5688 5688 5688 5688 5689 5689 5690 5690 5691 5691 5692 5693 5694 5694 5695 5695 5696 5696 5696 5696 5696 5695
5730 5730 5729 5728 5726 5724 5721 5719 5716 5713 5710 5707 5704 5701 5699 5696 5694 5693 5691 5690 5690 5689 5689 5689 5689 5689 5689 5689 5690 5690 5690 5691 5691 5692 5693 5693 5694 5694 5695 5695 5695 5695 5694 5694
5730 5729 5728 5727 5726 5724 5722 5720 5717 5715 5712 5709 5706 5703 5701 5698 5696 5694 5693 5692 5691 5691 5690 5690 5690 5690 5690 5690 5690 5690 5691 5691 5692 5692 5693 5693 5693 5694 5694 5694 5695 5695 5694 5694
5729 5729 5728 5727 5726 5725 5723 5721 5719 5716 5714 5711 5709 5706 5704 5701 5699 5697 5695 5694 5693 5693 5692 5692 5691 5691 5691 5691 5691 5691 5691 5692 5692 5693 5693 5693 5694 5694 5694 5695 5695 5695 5695 5695
5728 5728 5728 5728 5727 5726 5725 5723 5721 5719 5717 5714 5712 5709 5707 5704 5702 5700 5698 5696 5695 5695 5694 5693 5693 5693 5692 5692 5693 5693 5693 5693 5694 5694 5694 5695 5695 5695 5695 5696 5696 5696 5696 5696
5728 5729 5729 5728 5728 5727 5726 5725 5723 5721 5719 5717 5715 5713 5710 5708 5706 5703 5701 5699 5698 5697 5697 5696 5696 5695 5695 5695 5695 5695 5695 5695 5695 5696 5696 5696 5696 5696 5697 5697 5698 5698 5698 5698
5728 5729 5729 5729 5729 5729 5728 5727 5726 5724 5723 5721 5719 5717 5715 5712 5710 5707 5705 5703 5702 5701 5700 5699 5699 5699 5699 5699 5698 5698 5698 5698 5698 5698 5698 5698 5699 5699 5699 5700 5700 5700 5700 5700
5728 5729 5730 5730 5731 5731 5730 5730 5729 5728 5726 5724 5723 5721 5719 5717 5715 5712 5710 5708 5707 5705 5704 5703 5703 5703 5703 5703 5702 5702 5702 5702 5702 5702 5702 5702 5702 5702 5703 5703 5703 5703 5703 5703
5728 5729 5730 5731 5732 5732 5732 5732 5732 5731 5730 5729 5727 5725 5723 5722 5720 5718 5716 5714 5712 5710 5709 5708 5708 5708 5707 5707 5707 5707 5706 5706 5706 5706 5706 5706 5706 5706 5706 5706 5706 5706 5706 5706
5728 5730 5731 5732 5733 5734 5734 5734 5734 5734 5733 5732 5731 5729 5728 5726 5725 5723 5721 5720 5718 5716 5715 5714 5713 5713 5713 5712 5712 5712 5712 5711 5711 5711 5711 5710 5710 5710 5710 5710 5710 5710 5709 5709
5728 5730 5732 5733 5734 5735 5736 5736 5736 5736 5736 5735 5734 5733 5732 5731 5730 5728 5727 5726 5724 5722 5721 5720 5720 5719 5718 5718 5717 5717 5717 5716 5716 5716 5715 5715 5715 5715 5714 5714 5714 5713 5713 5712
5727 5730 5732 5734 5735 5736 5737 5738 5738 5739 5738 5738 5738 5737 5736 5735 5734 5733 5732 5731 5730 5728 5727 5726 5725 5725 5724 5723 5723 5722 5722 5721 5721 5720 5720 5719 5719 5719 5718 5718 5717 5716 5716 5715
5727 5729 5732 5734 5736 5737 5739 5739 5740 5741 5741 5741 5741 5740 5740 5739 5738 5738 5737 5735 5734 5733 5732 5732 5731 5730 5729 5728 5728 5727 5727 5726 5725 5725 5724 5723 5723 5722 5722 5721 5720 5719 5718 5718
5726 5729 5732 5734 5736 5738 5740 5741 5742 5743 5743 5743 5743 5743 5743 5743 5742 5741 5741 5740 5739 5738 5737 5736 5736 5735 5734 5733 5732 5732 5731 5730 5729 5729 5728 5727 5726 5726 5725 5724 5723 5722 5721 5720
5724 5728 5731 5734 5737 5739 5740 5742 5743 5744 5745 5745 5746 5746 5746 5745 5745 5745 5744 5743 5743 5742 5742 5741 5740 5739 5738 5738 5737 5736 5735 5734 5733 5732 5732 5731 5730 5729 5727 5726 5725 5724 5723 5722